QPF
0.01 0.01 0.01 0.01 0.01 0.01 0.01 0.01 0.01 0.01 0.00 0.00 0.00 0.00 0.00 0.00 0.00 0.00 0.00 0.00 0.00 0.00 0.00 0.00 0.00 0.00 0.00 0.00 0.00 0.00 0.00 0.00 0.00 0.00 0.00 0.00 0.00 0.01 0.01 0.01 0.01 0.01 0.01
0.01 0.01 0.01 0.00 0.00 0.00 0.00 0.00 0.00 0.00 0.00 0.00 0.00 0.00 0.00 0.00 0.00 0.00 0.00 0.00 0.00 0.00 0.00 0.00 0.00 0.00 0.00 0.00 0.00 0.00 0.00 0.00 0.00 0.00 0.00 0.00 0.00 0.00 0.00 0.01 0.01 0.01 0.01
0.00 0.01 0.00 0.00 0.00 0.00 0.00 0.00 0.00 0.00 0.00 0.00 0.00 0.00 0.00 0.00 0.00 0.00 0.00 0.00 0.00 0.00 0.00 0.00 0.00 0.00 0.00 0.00 0.00 0.00 0.00 0.00 0.00 0.00 0.00 0.00 0.00 0.00 0.00 0.00 0.00 0.00 0.00
0.00 0.00 0.00 0.00 0.00 0.00 0.00 0.00 0.00 0.00 0.00 0.00 0.00 0.00 0.00 0.00 0.00 0.00 0.00 0.00 0.00 0.00 0.00 0.00 0.00 0.00 0.00 0.00 0.00 0.00 0.00 0.00 0.00 0.00 0.00 0.00 0.00 0.00 0.00 0.00 0.00 0.00 0.00
0.00 0.00 0.00 0.00 0.00 0.00 0.00 0.00 0.00 0.00 0.00 0.00 0.00 0.00 0.00 0.00 0.00 0.00 0.00 0.00 0.00 0.00 0.00 0.00 0.00 0.00 0.00 0.00 0.00 0.00 0.00 0.00 0.00 0.00 0.00 0.00 0.00 0.00 0.00 0.00 0.00 0.00 0.00
0.00 0.00 0.00 0.00 0.00 0.00 0.00 0.00 0.00 0.00 0.00 0.00 0.00 0.00 0.00 0.00 0.00 0.00 0.00 0.00 0.00 0.01 0.01 0.01 0.01 0.00 0.00 0.00 0.00 0.00 0.00 0.00 0.00 0.00 0.00 0.00 0.00 0.00 0.00 0.00 0.00 0.00 0.00
0.01 0.01 0.00 0.00 0.00 0.00 0.00 0.00 0.00 0.00 0.00 0.00 0.00 0.00 0.00 0.00 0.01 0.01 0.01 0.01 0.01 0.01 0.01 0.01 0.00 0.00 0.00 0.00 0.00 0.00 0.00 0.00 0.00 0.00 0.00 0.00 0.00 0.00 0.00 0.00 0.00 0.00 0.00
0.02 0.01 0.01 0.01 0.01 0.00 0.00 0.00 0.00 0.00 0.00 0.00 0.00 0.00 0.00 0.00 0.01 0.01 0.01 0.00 0.00 0.00 0.00 0.00 0.00 0.00 0.00 0.00 0.00 0.00 0.00 0.00 0.00 0.00 0.00 0.00 0.00 0.00 0.00 0.00 0.00 0.00 0.00
0.02 0.01 0.01 0.01 0.01 0.01 0.01 0.00 0.01 0.01 0.00 0.00 0.00 0.00 0.00 0.00 0.01 0.00 0.00 0.00 0.00 0.00 0.00 0.00 0.00 0.00 0.00 0.00 0.00 0.00 0.00 0.00 0.00 0.00 0.00 0.00 0.00 0.00 0.00 0.00 0.00 0.00 0.00
0.01 0.01 0.01 0.01 0.01 0.01 0.01 0.01 0.01 0.01 0.01 0.01 0.00 0.00 0.00 0.00 0.00 0.00 0.00 0.00 0.00 0.00 0.00 0.00 0.00 0.00 0.00 0.00 0.00 0.00 0.00 0.00 0.00 0.00 0.00 0.00 0.00 0.00 0.00 0.00 0.00 0.00 0.00
0.00 0.01 0.01 0.02 0.02 0.02 0.02 0.02 0.02 0.01 0.01 0.01 0.01 0.01 0.01 0.00 0.00 0.00 0.00 0.00 0.00 0.00 0.00 0.00 0.00 0.00 0.00 0.00 0.00 0.00 0.00 0.00 0.00 0.00 0.00 0.00 0.00 0.00 0.00 0.00 0.00 0.00 0.00
0.00 0.01 0.01 0.03 0.02 0.02 0.02 0.02 0.01 0.01 0.01 0.02 0.02 0.02 0.02 0.02 0.02 0.02 0.02 0.02 0.02 0.01 0.01 0.01 0.00 0.00 0.00 0.00 0.00 0.00 0.00 0.00 0.00 0.00 0.00 0.00 0.00 0.00 0.00 0.00 0.00 0.00 0.00
0.01 0.01 0.02 0.02 0.02 0.01 0.02 0.02 0.02 0.02 0.02 0.02 0.02 0.02 0.02 0.02 0.03 0.03 0.03 0.02 0.02 0.02 0.01 0.01 0.01 0.01 0.01 0.01 0.01 0.01 0.01 0.01 0.00 0.00 0.00 0.00 0.00 0.00 0.00 0.00 0.00 0.00 0.00
0.03 0.03 0.03 0.02 0.02 0.02 0.02 0.02 0.02 0.03 0.03 0.03 0.03 0.03 0.03 0.02 0.02 0.01 0.01 0.01 0.01 0.01 0.01 0.01 0.01 0.02 0.02 0.02 0.01 0.01 0.01 0.01 0.01 0.00 0.00 0.00 0.00 0.00 0.00 0.00 0.00 0.00 0.00
0.05 0.04 0.04 0.04 0.03 0.03 0.04 0.04 0.04 0.04 0.03 0.04 0.03 0.04 0.03 0.02 0.02 0.02 0.01 0.01 0.01 0.01 0.01 0.00 0.01 0.01 0.01 0.01 0.01 0.01 0.01 0.01 0.01 0.01 0.01 0.00 0.00 0.00 0.00 0.00 0.00 0.00 0.00
0.06 0.05 0.05 0.05 0.05 0.05 0.05 0.04 0.04 0.03 0.02 0.02 0.02 0.02 0.02 0.02 0.02 0.02 0.02 0.02 0.02 0.01 0.01 0.01 0.01 0.01 0.01 0.01 0.01 0.01 0.01 0.01 0.01 0.01 0.01 0.01 0.00 0.00 0.00 0.00 0.01 0.01 0.01
0.06 0.06 0.05 0.05 0.05 0.04 0.04 0.03 0.03 0.03 0.02 0.02 0.02 0.02 0.01 0.02 0.02 0.02 0.02 0.02 0.02 0.01 0.01 0.01 0.00 0.01 0.01 0.01 0.01 0.00 0.00 0.00 0.00 0.00 0.00 0.00 0.00 0.00 0.01 0.01 0.00 0.00 0.01
0.07 0.08 0.07 0.06 0.05 0.04 0.03 0.03 0.03 0.02 0.02 0.02 0.02 0.02 0.01 0.01 0.02 0.02 0.02 0.01 0.01 0.01 0.01 0.01 0.01 0.01 0.01 0.01 0.01 0.00 0.00 0.00 0.00 0.00 0.01 0.01 0.01 0.01 0.01 0.01 0.01 0.01 0.01
0.05 0.06 0.06 0.06 0.05 0.05 0.04 0.03 0.02 0.02 0.02 0.02 0.02 0.02 0.02 0.02 0.02 0.03 0.03 0.02 0.02 0.02 0.02 0.02 0.02 0.01 0.01 0.01 0.01 0.01 0.01 0.01 0.01 0.01 0.01 0.01 0.01 0.01 0.02 0.02 0.02 0.02 0.02
0.05 0.06 0.06 0.06 0.06 0.06 0.06 0.05 0.04 0.04 0.03 0.03 0.02 0.02 0.02 0.02 0.02 0.02 0.02 0.02 0.02 0.02 0.02 0.02 0.02 0.02 0.02 0.02 0.02 0.02 0.02 0.02 0.02 0.02 0.02 0.02 0.02 0.02 0.03 0.03 0.03 0.03 0.03
0.04 0.05 0.08 0.07 0.06 0.05 0.05 0.04 0.04 0.04 0.04 0.04 0.03 0.03 0.03 0.02 0.02 0.02 0.02 0.02 0.02 0.02 0.02 0.02 0.02 0.02 0.02 0.02 0.03 0.03 0.03 0.03 0.03 0.04 0.04 0.04 0.03 0.03 0.03 0.02 0.02 0.02 0.02
0.04 0.04 0.03 0.03 0.03 0.04 0.04 0.04 0.04 0.04 0.05 0.05 0.04 0.04 0.03 0.02 0.02 0.02 0.02 0.02 0.01 0.01 0.02 0.02 0.02 0.02 0.02 0.03 0.03 0.04 0.04 0.05 0.05 0.05 0.04 0.03 0.03 0.02 0.02 0.01 0.01 0.01 0.01
0.04 0.04 0.03 0.04 0.04 0.05 0.05 0.05 0.04 0.04 0.04 0.04 0.03 0.03 0.02 0.02 0.02 0.02 0.02 0.01 0.01 0.01 0.01 0.01 0.01 0.01 0.01 0.02 0.02 0.03 0.03 0.03 0.03 0.03 0.02 0.02 0.02 0.01 0.01 0.01 0.01 0.01 0.02
0.03 0.03 0.03 0.03 0.04 0.03 0.03 0.03 0.03 0.03 0.03 0.02 0.02 0.02 0.02 0.02 0.02 0.02 0.01 0.01 0.01 0.01 0.01 0.01 0.01 0.01 0.01 0.01 0.01 0.01 0.02 0.02 0.01 0.01 0.01 0.01 0.01 0.01 0.01 0.01 0.02 0.02 0.02
0.02 0.02 0.02 0.02 0.02 0.02 0.02 0.01 0.01 0.01 0.01 0.01 0.01 0.01 0.01 0.01 0.01 0.01 0.01 0.01 0.01 0.01 0.01 0.01 0.01 0.01 0.01 0.01 0.01 0.01 0.01 0.01 0.01 0.01 0.01 0.01 0.01 0.02 0.02 0.03 0.03 0.04 0.03
0.04 0.04 0.03 0.03 0.02 0.02 0.02 0.01 0.01 0.01 0.01 0.01 0.00 0.00 0.00 0.00 0.00 0.00 0.00 0.00 0.00 0.00 0.00 0.00 0.01 0.01 0.01 0.01 0.00 0.00 0.01 0.01 0.01 0.02 0.02 0.02 0.02 0.03 0.03 0.04 0.04 0.04 0.04
MSLP
1014.75 1015.24 1015.77 1016.28 1016.75 1017.17 1017.54 1017.88 1018.19 1018.51 1018.83 1019.17 1019.50 1019.82 1020.10 1020.32 1020.49 1020.61 1020.69 1020.75 1020.81 1020.90 1021.01 1021.14 1021.29 1021.43 1021.57 1021.67 1021.73 1021.76 1021.74 1021.69 1021.61 1021.51 1021.37 1021.19 1020.99 1020.76 1020.51 1020.25 1020.00 1019.77 1019.59
1014.52 1015.01 1015.51 1016.00 1016.46 1016.89 1017.27 1017.62 1017.96 1018.30 1018.64 1018.99 1019.33 1019.65 1019.93 1020.16 1020.34 1020.47 1020.56 1020.64 1020.71 1020.79 1020.89 1021.00 1021.12 1021.24 1021.35 1021.43 1021.48 1021.51 1021.51 1021.50 1021.47 1021.41 1021.33 1021.21 1021.05 1020.85 1020.62 1020.35 1020.08 1019.82 1019.58
1014.26 1014.76 1015.26 1015.75 1016.21 1016.63 1017.02 1017.39 1017.75 1018.10 1018.47 1018.83 1019.18 1019.50 1019.79 1020.02 1020.20 1020.34 1020.44 1020.52 1020.59 1020.67 1020.76 1020.85 1020.95 1021.03 1021.11 1021.17 1021.20 1021.23 1021.24 1021.24 1021.24 1021.23 1021.19 1021.13 1021.02 1020.86 1020.66 1020.42 1020.14 1019.86 1019.59
1013.92 1014.47 1014.99 1015.49 1015.95 1016.38 1016.78 1017.16 1017.53 1017.91 1018.29 1018.67 1019.03 1019.36 1019.65 1019.88 1020.06 1020.19 1020.29 1020.36 1020.43 1020.50 1020.58 1020.65 1020.73 1020.79 1020.85 1020.88 1020.90 1020.91 1020.92 1020.93 1020.94 1020.95 1020.95 1020.92 1020.86 1020.75 1020.59 1020.38 1020.13 1019.85 1019.57
1013.47 1014.08 1014.65 1015.18 1015.66 1016.09 1016.50 1016.90 1017.29 1017.69 1018.09 1018.48 1018.85 1019.18 1019.46 1019.69 1019.85 1019.98 1020.06 1020.12 1020.18 1020.24 1020.31 1020.37 1020.44 1020.49 1020.53 1020.55 1020.55 1020.55 1020.54 1020.54 1020.54 1020.56 1020.57 1020.57 1020.54 1020.47 1020.36 1020.19 1019.98 1019.72 1019.44
1012.87 1013.56 1014.19 1014.76 1015.27 1015.73 1016.16 1016.57 1016.99 1017.40 1017.82 1018.22 1018.59 1018.92 1019.19 1019.40 1019.55 1019.64 1019.71 1019.76 1019.80 1019.85 1019.91 1019.98 1020.04 1020.10 1020.13 1020.14 1020.13 1020.11 1020.08 1020.06 1020.05 1020.05 1020.06 1020.06 1020.05 1020.02 1019.94 1019.81 1019.64 1019.41 1019.15
1012.12 1012.90 1013.60 1014.22 1014.76 1015.25 1015.71 1016.15 1016.58 1017.02 1017.45 1017.86 1018.23 1018.55 1018.80 1018.99 1019.11 1019.18 1019.22 1019.25 1019.28 1019.32 1019.38 1019.45 1019.53 1019.59 1019.63 1019.65 1019.63 1019.59 1019.55 1019.49 1019.45 1019.42 1019.41 1019.40 1019.40 1019.38 1019.33 1019.24 1019.10 1018.91 1018.67
1011.25 1012.10 1012.86 1013.53 1014.13 1014.65 1015.15 1015.61 1016.07 1016.53 1016.98 1017.39 1017.76 1018.07 1018.30 1018.46 1018.55 1018.59 1018.60 1018.61 1018.63 1018.67 1018.73 1018.82 1018.90 1018.98 1019.04 1019.06 1019.04 1018.99 1018.93 1018.84 1018.77 1018.70 1018.66 1018.63 1018.61 1018.59 1018.55 1018.48 1018.38 1018.22 1018.00
1010.29 1011.20 1012.02 1012.74 1013.38 1013.95 1014.48 1014.99 1015.48 1015.96 1016.42 1016.84 1017.21 1017.51 1017.72 1017.85 1017.92 1017.93 1017.92 1017.91 1017.91 1017.95 1018.02 1018.11 1018.21 1018.31 1018.38 1018.41 1018.39 1018.34 1018.25 1018.14 1018.03 1017.93 1017.84 1017.79 1017.74 1017.71 1017.67 1017.62 1017.53 1017.39 1017.21
1009.29 1010.25 1011.11 1011.88 1012.57 1013.19 1013.76 1014.31 1014.83 1015.34 1015.82 1016.25 1016.62 1016.90 1017.10 1017.22 1017.26 1017.26 1017.23 1017.20 1017.20 1017.23 1017.31 1017.40 1017.51 1017.62 1017.69 1017.73 1017.71 1017.65 1017.55 1017.41 1017.27 1017.14 1017.02 1016.93 1016.87 1016.81 1016.77 1016.71 1016.63 1016.51 1016.34
1008.32 1009.30 1010.19 1011.01 1011.74 1012.40 1013.02 1013.61 1014.17 1014.71 1015.20 1015.64 1016.01 1016.29 1016.48 1016.59 1016.63 1016.61 1016.58 1016.55 1016.55 1016.58 1016.65 1016.74 1016.85 1016.95 1017.03 1017.06 1017.03 1016.96 1016.84 1016.69 1016.53 1016.37 1016.23 1016.12 1016.03 1015.95 1015.89 1015.83 1015.74 1015.63 1015.47
1007.40 1008.39 1009.32 1010.16 1010.93 1011.64 1012.31 1012.94 1013.53 1014.09 1014.60 1015.04 1015.41 1015.69 1015.89 1015.99 1016.03 1016.03 1016.00 1015.98 1015.98 1016.01 1016.07 1016.16 1016.25 1016.34 1016.39 1016.40 1016.37 1016.28 1016.15 1015.99 1015.82 1015.65 1015.49 1015.36 1015.25 1015.16 1015.09 1015.01 1014.91 1014.79 1014.62
1006.56 1007.57 1008.51 1009.39 1010.19 1010.94 1011.65 1012.30 1012.92 1013.49 1014.01 1014.46 1014.83 1015.11 1015.30 1015.42 1015.47 1015.48 1015.47 1015.47 1015.47 1015.51 1015.56 1015.63 1015.71 1015.76 1015.79 1015.77 1015.71 1015.60 1015.46 1015.30 1015.12 1014.95 1014.80 1014.66 1014.55 1014.45 1014.35 1014.25 1014.14 1014.00 1013.82
1005.83 1006.84 1007.80 1008.70 1009.53 1010.32 1011.04 1011.72 1012.35 1012.92 1013.43 1013.87 1014.23 1014.50 1014.70 1014.83 1014.90 1014.94 1014.96 1014.98 1015.00 1015.04 1015.09 1015.14 1015.18 1015.20 1015.19 1015.14 1015.05 1014.92 1014.77 1014.60 1014.43 1014.27 1014.13 1014.00 1013.88 1013.78 1013.67 1013.55 1013.41 1013.25 1013.04
1005.22 1006.23 1007.19 1008.11 1008.97 1009.77 1010.51 1011.19 1011.81 1012.37 1012.85 1013.27 1013.60 1013.86 1014.06 1014.19 1014.29 1014.36 1014.41 1014.46 1014.51 1014.56 1014.61 1014.64 1014.65 1014.63 1014.58 1014.49 1014.36 1014.22 1014.06 1013.89 1013.73 1013.59 1013.46 1013.35 1013.24 1013.13 1013.02 1012.88 1012.71 1012.51 1012.27
1004.74 1005.74 1006.71 1007.63 1008.50 1009.30 1010.04 1010.71 1011.30 1011.83 1012.27 1012.64 1012.94 1013.18 1013.36 1013.51 1013.62 1013.72 1013.81 1013.89 1013.97 1014.03 1014.08 1014.10 1014.08 1014.03 1013.94 1013.81 1013.66 1013.49 1013.32 1013.16 1013.02 1012.89 1012.79 1012.69 1012.60 1012.50 1012.37 1012.22 1012.03 1011.79 1011.51
1004.42 1005.40 1006.35 1007.27 1008.13 1008.92 1009.64 1010.28 1010.84 1011.31 1011.71 1012.03 1012.28 1012.48 1012.65 1012.79 1012.92 1013.05 1013.17 1013.28 1013.39 1013.47 1013.52 1013.53 1013.50 1013.41 1013.29 1013.13 1012.95 1012.77 1012.59 1012.44 1012.31 1012.20 1012.12 1012.04 1011.97 1011.87 1011.74 1011.58 1011.36 1011.09 1010.78
1004.27 1005.21 1006.14 1007.03 1007.87 1008.64 1009.33 1009.94 1010.45 1010.87 1011.20 1011.47 1011.67 1011.83 1011.98 1012.11 1012.25 1012.40 1012.55 1012.69 1012.82 1012.92 1012.98 1012.99 1012.94 1012.83 1012.68 1012.50 1012.30 1012.10 1011.92 1011.77 1011.65 1011.56 1011.50 1011.44 1011.38 1011.29 1011.16 1010.98 1010.75 1010.45 1010.11
1004.31 1005.20 1006.08 1006.94 1007.74 1008.48 1009.14 1009.70 1010.16 1010.53 1010.81 1011.02 1011.18 1011.31 1011.43 1011.56 1011.70 1011.86 1012.03 1012.19 1012.34 1012.46 1012.52 1012.53 1012.47 1012.34 1012.17 1011.96 1011.75 1011.54 1011.35 1011.20 1011.09 1011.01 1010.96 1010.92 1010.87 1010.78 1010.65 1010.47 1010.22 1009.91 1009.54
1004.55 1005.37 1006.19 1007.00 1007.76 1008.46 1009.08 1009.60 1010.02 1010.34 1010.58 1010.75 1010.87 1010.98 1011.08 1011.20 1011.35 1011.51 1011.70 1011.88 1012.03 1012.15 1012.22 1012.21 1012.14 1012.00 1011.80 1011.58 1011.35 1011.12 1010.93 1010.77 1010.66 1010.59 1010.55 1010.51 1010.46 1010.38 1010.25 1010.06 1009.81 1009.49 1009.10
1005.00 1005.72 1006.47 1007.21 1007.92 1008.58 1009.16 1009.65 1010.04 1010.33 1010.55 1010.69 1010.80 1010.89 1010.99 1011.11 1011.25 1011.43 1011.61 1011.79 1011.95 1012.06 1012.10 1012.08 1011.98 1011.82 1011.60 1011.35 1011.10 1010.86 1010.65 1010.49 1010.37 1010.30 1010.25 1010.22 1010.17 1010.09 1009.96 1009.77 1009.50 1009.17 1008.77
1005.61 1006.24 1006.90 1007.57 1008.23 1008.84 1009.39 1009.85 1010.22 1010.50 1010.71 1010.86 1010.96 1011.06 1011.16 1011.28 1011.43 1011.60 1011.77 1011.94 1012.08 1012.16 1012.18 1012.12 1011.98 1011.78 1011.53 1011.25 1010.97 1010.71 1010.48 1010.30 1010.17 1010.09 1010.04 1010.00 1009.95 1009.86 1009.73 1009.53 1009.26 1008.91 1008.50
1006.35 1006.88 1007.46 1008.07 1008.67 1009.23 1009.75 1010.19 1010.56 1010.84 1011.06 1011.22 1011.34 1011.45 1011.57 1011.70 1011.84 1012.00 1012.15 1012.29 1012.38 1012.42 1012.39 1012.27 1012.08 1011.83 1011.53 1011.21 1010.89 1010.60 1010.34 1010.14 1010.00 1009.90 1009.83 1009.78 1009.72 1009.62 1009.48 1009.27 1008.98 1008.62 1008.19
1007.16 1007.62 1008.12 1008.66 1009.21 1009.74 1010.22 1010.65 1011.01 1011.31 1011.54 1011.72 1011.87 1012.00 1012.13 1012.27 1012.41 1012.54 1012.66 1012.75 1012.78 1012.75 1012.64 1012.46 1012.20 1011.88 1011.51 1011.14 1010.77 1010.44 1010.15 1009.92 1009.75 1009.63 1009.55 1009.48 1009.40 1009.28 1009.12 1008.89 1008.58 1008.19 1007.72
1008.01 1008.40 1008.85 1009.33 1009.83 1010.32 1010.78 1011.20 1011.56 1011.86 1012.11 1012.31 1012.48 1012.64 1012.78 1012.91 1013.03 1013.13 1013.20 1013.23 1013.18 1013.07 1012.87 1012.59 1012.24 1011.83 1011.40 1010.96 1010.53 1010.15 1009.82 1009.56 1009.36 1009.21 1009.10 1009.01 1008.91 1008.77 1008.58 1008.32 1007.98 1007.55 1007.05
1008.86 1009.21 1009.62 1010.06 1010.52 1010.98 1011.41 1011.81 1012.16 1012.46 1012.72 1012.94 1013.13 1013.29 1013.43 1013.55 1013.64 1013.70 1013.70 1013.64 1013.51 1013.29 1012.99 1012.61 1012.16 1011.66 1011.14 1010.63 1010.14 1009.70 1009.32 1009.02 1008.79 1008.61 1008.47 1008.35 1008.22 1008.05 1007.83 1007.53 1007.15 1006.68 1006.13
Thickness
5708 5706 5704 5702 5700 5699 5697 5696 5695 5693 5692 5691 5689 5688 5686 5685 5683 5682 5681 5680 5679 5677 5676 5675 5673 5672 5671 5670 5668 5667 5665 5663 5660 5659 5659 5660 5660 5661 5661 5661 5662 5662 5662
5709 5706 5704 5701 5699 5698 5697 5696 5694 5693 5691 5690 5689 5687 5685 5684 5682 5681 5680 5678 5677 5675 5674 5672 5671 5670 5668 5667 5665 5664 5662 5660 5658 5656 5656 5656 5656 5656 5656 5656 5657 5657 5657
5709 5706 5703 5701 5699 5698 5697 5695 5694 5692 5691 5689 5688 5686 5685 5683 5681 5680 5679 5677 5675 5674 5672 5671 5669 5668 5666 5664 5663 5661 5659 5658 5655 5653 5652 5651 5651 5651 5651 5652 5652 5652 5653
5710 5706 5703 5701 5700 5698 5696 5695 5693 5692 5690 5688 5687 5686 5684 5682 5681 5679 5677 5675 5674 5672 5671 5669 5668 5666 5665 5663 5661 5658 5656 5654 5652 5650 5648 5647 5647 5647 5646 5646 5647 5648 5648
5711 5708 5705 5703 5701 5698 5696 5694 5692 5691 5690 5688 5686 5684 5683 5681 5680 5678 5676 5674 5672 5670 5669 5668 5666 5665 5663 5661 5659 5657 5654 5651 5649 5647 5645 5644 5644 5643 5642 5642 5642 5642 5643
5713 5710 5707 5704 5701 5699 5696 5694 5691 5689 5688 5686 5684 5683 5681 5680 5679 5677 5675 5673 5670 5668 5667 5666 5664 5663 5662 5660 5658 5656 5653 5650 5647 5644 5643 5641 5641 5640 5639 5638 5637 5636 5637
5715 5712 5708 5705 5702 5699 5697 5693 5691 5688 5686 5684 5682 5681 5679 5678 5677 5675 5673 5671 5668 5666 5665 5663 5662 5661 5659 5658 5656 5654 5652 5650 5647 5644 5642 5641 5640 5639 5636 5635 5633 5631 5632
5716 5713 5710 5706 5703 5700 5696 5693 5690 5687 5685 5683 5681 5679 5677 5676 5675 5673 5671 5668 5666 5664 5662 5660 5659 5658 5656 5654 5652 5650 5649 5647 5645 5643 5641 5640 5639 5637 5633 5631 5630 5628 5628
5718 5715 5713 5709 5704 5700 5696 5692 5689 5686 5683 5681 5679 5677 5675 5675 5673 5671 5669 5665 5663 5662 5660 5658 5656 5655 5654 5651 5648 5647 5646 5645 5644 5641 5639 5638 5636 5633 5629 5626 5625 5623 5625
5721 5719 5715 5711 5706 5701 5698 5693 5689 5686 5683 5680 5678 5676 5674 5673 5672 5669 5666 5663 5660 5659 5658 5656 5654 5653 5651 5648 5645 5643 5641 5642 5639 5638 5636 5634 5632 5630 5627 5623 5622 5619 5619
5724 5720 5715 5710 5706 5703 5698 5693 5688 5684 5680 5677 5675 5674 5672 5671 5669 5667 5664 5660 5659 5657 5655 5654 5653 5650 5647 5645 5642 5640 5639 5637 5634 5631 5630 5629 5628 5626 5624 5621 5618 5615 5614
5722 5717 5712 5708 5704 5701 5695 5690 5686 5682 5677 5674 5672 5670 5669 5668 5666 5665 5662 5659 5656 5653 5652 5652 5650 5647 5644 5640 5638 5636 5633 5629 5627 5625 5624 5624 5623 5623 5621 5618 5614 5612 5610
5718 5714 5710 5706 5702 5699 5693 5688 5682 5679 5675 5673 5669 5667 5666 5665 5663 5661 5659 5656 5653 5650 5650 5648 5645 5641 5638 5636 5633 5630 5627 5624 5622 5620 5620 5620 5619 5617 5614 5612 5610 5607 5605
5715 5710 5706 5702 5698 5695 5691 5687 5682 5678 5674 5670 5667 5665 5663 5661 5660 5658 5656 5653 5649 5646 5643 5641 5638 5635 5632 5630 5627 5625 5622 5619 5617 5615 5615 5614 5612 5609 5607 5605 5603 5601 5599
5711 5706 5701 5698 5695 5691 5688 5685 5682 5679 5676 5671 5668 5665 5661 5658 5658 5655 5652 5648 5645 5642 5638 5634 5631 5629 5627 5625 5622 5619 5616 5613 5610 5609 5607 5605 5604 5602 5601 5598 5594 5592 5590
5707 5702 5698 5694 5691 5687 5683 5679 5677 5675 5672 5669 5665 5662 5660 5657 5655 5650 5646 5642 5638 5634 5630 5628 5626 5623 5621 5619 5616 5614 5611 5608 5605 5602 5600 5597 5596 5594 5593 5591 5586 5584 5583
5703 5698 5694 5690 5686 5682 5678 5675 5671 5668 5665 5662 5659 5656 5653 5651 5647 5643 5639 5635 5630 5625 5623 5622 5620 5617 5615 5612 5608 5605 5604 5602 5598 5595 5592 5590 5588 5586 5584 5582 5580 5577 5576
5697 5692 5688 5684 5680 5677 5674 5670 5666 5662 5658 5656 5653 5649 5646 5642 5638 5635 5630 5625 5621 5617 5616 5615 5613 5611 5608 5605 5602 5598 5596 5593 5589 5587 5585 5582 5580 5577 5575 5574 5572 5569 5568
5688 5684 5681 5677 5674 5670 5667 5664 5660 5657 5653 5649 5646 5643 5638 5634 5629 5625 5620 5618 5617 5614 5611 5608 5606 5603 5600 5597 5593 5590 5587 5584 5581 5578 5576 5574 5571 5568 5567 5565 5563 5560 5557
5678 5676 5673 5669 5665 5661 5657 5654 5651 5648 5645 5641 5638 5635 5630 5625 5621 5618 5612 5610 5608 5606 5603 5600 5598 5594 5591 5587 5584 5580 5578 5575 5572 5569 5567 5565 5562 5559 5557 5556 5554 5552 5550
5668 5666 5663 5659 5655 5651 5648 5644 5640 5637 5634 5631 5629 5625 5620 5617 5614 5611 5606 5602 5599 5597 5594 5591 5588 5585 5581 5577 5574 5571 5568 5566 5563 5560 5558 5555 5552 5549 5547 5545 5544 5542 5541
5657 5654 5651 5648 5644 5640 5637 5634 5630 5627 5623 5620 5617 5614 5609 5606 5603 5600 5597 5594 5590 5587 5584 5580 5578 5575 5572 5568 5565 5561 5559 5557 5554 5551 5548 5546 5542 5539 5537 5535 5534 5533 5532
5644 5641 5638 5635 5631 5628 5624 5622 5618 5615 5612 5609 5605 5602 5598 5595 5592 5588 5585 5583 5580 5577 5574 5570 5568 5565 5562 5558 5554 5551 5548 5547 5544 5541 5538 5535 5532 5529 5527 5525 5524 5524 5523
5631 5628 5625 5622 5618 5615 5612 5608 5605 5602 5599 5597 5593 5589 5586 5583 5580 5577 5574 5571 5569 5566 5562 5559 5556 5554 5551 5548 5544 5541 5538 5535 5532 5529 5526 5523 5521 5519 5517 5515 5514 5513 5513
5616 5613 5610 5608 5604 5601 5598 5595 5592 5589 5586 5583 5579 5576 5573 5570 5567 5564 5561 5558 5556 5553 5550 5548 5545 5543 5540 5537 5533 5530 5527 5523 5519 5516 5514 5512 5510 5509 5507 5506 5505 5505 5504
5600 5598 5595 5592 5589 5586 5583 5580 5578 5575 5571 5568 5565 5562 5558 5555 5553 5550 5547 5545 5542 5540 5538 5535 5533 5530 5528 5525 5522 5518 5515 5511 5508 5504 5501 5500 5500 5499 5498 5497 5496 5496 5496